Location: Mexico
(19.4000°N, 99.1500°W)
Time: 06:47:46
(UTC-06:00)

ISS - Pass Details

Date: 11 December 2019
Orbit: 411 x 421 km, 51.6° (Epoch: 11 December)

Event Time Altitude Azimuth Distance (km) Brightness Sun altitude
Rises 18:26:47 0° 343° (NNW) 2,350 0.0 -6.8°
Reaches altitude 10° 18:29:30 10° 7° (N) 1,488 -1.2 -7.4°
Maximum altitude 18:31:35 15° 46° (NE) 1,202 -2.0 -7.8°
Drops below altitude 10° 18:33:40 10° 85° (E) 1,489 -1.6 -8.3°
Enters shadow 18:33:40 10° 85° (E) 1,490 -1.6 -8.3°
